Time,TemperatureF,DewpointF,PressureIn,WindDirection,WindDirectionDegrees,WindSpeedMPH,WindSpeedGustMPH,Humidity,HourlyPrecipIn,Conditions,Clouds,dailyrainin,SoftwareType,DateUTC
2013-03-12 00:00:00,38.7,29.3,29.07,SW,225,4.7,13.0,69,0.00,,,0.24,WUHU21623XXSP,2013-03-12 04:00:00,
2013-03-12 00:05:00,38.3,29.4,29.07,SW,225,6.3,13.0,70,0.00,,,0.00,WUHU21623XXSP,2013-03-12 04:05:00,
2013-03-12 00:10:00,38.3,29.4,29.07,WSW,247,6.0,7.2,70,0.00,,,0.00,WUHU21623XXSP,2013-03-12 04:10:00,
2013-03-12 00:15:00,38.3,29.4,29.06,SSW,202,5.8,6.0,70,0.00,,,0.00,WUHU21623XXSP,2013-03-12 04:15:00,
2013-03-12 00:20:00,38.3,29.4,29.07,WSW,247,8.1,8.1,70,0.00,,,0.00,WUHU21623XXSP,2013-03-12 04:20:00,
2013-03-12 00:25:00,38.1,29.2,29.07,WSW,247,5.4,9.4,70,0.00,,,0.00,WUHU21623XXSP,2013-03-12 04:25:00,
2013-03-12 00:30:00,38.3,29.4,29.07,WSW,247,6.7,9.4,70,0.00,,,0.00,WUHU21623XXSP,2013-03-12 04:30:00,
2013-03-12 00:35:00,38.1,29.2,29.07,SW,225,5.1,6.9,70,0.00,,,0.00,WUHU21623XXSP,2013-03-12 04:35:00,
2013-03-12 00:40:00,38.1,29.2,29.07,West,270,6.5,13.6,70,0.00,,,0.00,WUHU21623XXSP,2013-03-12 04:40:00,
2013-03-12 00:45:00,38.1,29.2,29.07,WSW,247,8.1,13.6,70,0.00,,,0.00,WUHU21623XXSP,2013-03-12 04:45:00,
2013-03-12 00:50:00,38.1,29.6,29.07,WSW,247,5.4,8.1,71,0.00,,,0.00,WUHU21623XXSP,2013-03-12 04:50:00,
2013-03-12 00:55:00,38.1,29.6,29.07,WSW,247,10.5,10.5,71,0.00,,,0.00,WUHU21623XXSP,2013-03-12 04:55:00,
2013-03-12 01:00:00,38.1,29.6,29.07,SW,225,8.7,10.5,71,0.00,,,0.00,WUHU21623XXSP,2013-03-12 05:00:00,
2013-03-12 01:05:00,38.1,29.6,29.07,SW,225,8.7,8.7,71,0.00,,,0.00,WUHU21623XXSP,2013-03-12 05:05:00,
2013-03-12 01:10:00,37.9,29.4,29.07,WSW,247,8.5,8.7,71,0.00,,,0.00,WUHU21623XXSP,2013-03-12 05:10:00,
2013-03-12 01:15:00,38.1,29.6,29.08,WSW,247,6.3,8.7,71,0.00,,,0.00,WUHU21623XXSP,2013-03-12 05:15:00,
2013-03-12 01:20:00,38.1,29.6,29.08,SW,225,7.6,7.6,71,0.00,,,0.00,WUHU21623XXSP,2013-03-12 05:20:00,
2013-03-12 01:25:00,38.1,29.6,29.08,WSW,247,4.0,7.6,71,0.00,,,0.00,WUHU21623XXSP,2013-03-12 05:25:00,
2013-03-12 01:30:00,38.1,29.6,29.08,West,270,2.5,7.6,71,0.00,,,0.00,WUHU21623XXSP,2013-03-12 05:30:00,
2013-03-12 01:35:00,38.1,29.6,29.08,WSW,247,4.7,7.6,71,0.00,,,0.00,WUHU21623XXSP,2013-03-12 05:35:00,
2013-03-12 01:40:00,38.1,29.6,29.08,SW,225,5.8,5.8,71,0.00,,,0.00,WUHU21623XXSP,2013-03-12 05:40:00,
2013-03-12 01:45:00,38.1,29.6,29.08,SW,225,5.4,5.8,71,0.00,,,0.00,WUHU21623XXSP,2013-03-12 05:45:00,
2013-03-12 01:50:00,38.1,29.6,29.09,SW,225,0.0,6.0,71,0.00,,,0.00,WUHU21623XXSP,2013-03-12 05:50:00,
2013-03-12 01:55:00,38.1,29.6,29.09,West,270,4.5,6.3,71,0.00,,,0.00,WUHU21623XXSP,2013-03-12 05:55:00,
2013-03-12 02:00:00,37.9,29.4,29.09,West,270,3.8,6.3,71,0.00,,,0.00,WUHU21623XXSP,2013-03-12 06:00:00,
2013-03-12 02:05:00,37.9,29.4,29.09,West,270,3.8,5.1,71,0.00,,,0.00,WUHU21623XXSP,2013-03-12 06:05:00,
2013-03-12 02:10:00,37.9,29.4,29.09,West,270,3.8,3.8,71,0.00,,,0.00,WUHU21623XXSP,2013-03-12 06:10:00,
2013-03-12 02:15:00,37.9,29.4,29.09,SW,225,3.4,7.4,71,0.00,,,0.00,WUHU21623XXSP,2013-03-12 06:15:00,
2013-03-12 02:20:00,37.9,29.1,29.09,West,270,0.0,7.4,70,0.00,,,0.00,WUHU21623XXSP,2013-03-12 06:20:00,
2013-03-12 02:25:00,37.8,28.9,29.10,West,270,0.2,4.7,70,0.00,,,0.00,WUHU21623XXSP,2013-03-12 06:25:00,
2013-03-12 02:30:00,37.8,28.9,29.10,WSW,247,5.6,5.6,70,0.00,,,0.00,WUHU21623XXSP,2013-03-12 06:30:00,
2013-03-12 02:35:00,37.9,29.1,29.10,WSW,247,0.0,5.6,70,0.00,,,0.00,WUHU21623XXSP,2013-03-12 06:35:00,
2013-03-12 02:40:00,37.9,29.1,29.10,West,270,0.0,1.8,70,0.00,,,0.00,WUHU21623XXSP,2013-03-12 06:40:00,
2013-03-12 02:45:00,37.9,29.1,29.10,SW,225,6.0,6.0,70,0.00,,,0.00,WUHU21623XXSP,2013-03-12 06:45:00,
2013-03-12 02:50:00,37.9,29.1,29.10,WSW,247,6.3,6.7,70,0.00,,,0.00,WUHU21623XXSP,2013-03-12 06:50:00,
2013-03-12 02:55:00,37.8,28.9,29.10,SSW,202,4.9,6.7,70,0.00,,,0.00,WUHU21623XXSP,2013-03-12 06:55:00,
2013-03-12 03:00:00,37.6,28.7,29.11,WSW,247,6.9,6.9,70,0.00,,,0.00,WUHU21623XXSP,2013-03-12 07:00:00,
2013-03-12 03:05:00,37.6,29.1,29.11,West,270,2.2,6.9,71,0.00,,,0.00,WUHU21623XXSP,2013-03-12 07:05:00,
2013-03-12 03:10:00,37.4,28.9,29.12,West,270,2.7,8.7,71,0.00,,,0.00,WUHU21623XXSP,2013-03-12 07:10:00,
2013-03-12 03:15:00,37.2,28.7,29.11,West,270,0.0,8.7,71,0.00,,,0.00,WUHU21623XXSP,2013-03-12 07:15:00,
2013-03-12 03:20:00,37.0,28.9,29.12,West,270,0.0,8.5,72,0.00,,,0.00,WUHU21623XXSP,2013-03-12 07:20:00,
2013-03-12 03:25:00,37.0,28.9,29.11,WSW,247,4.3,5.6,72,0.00,,,0.00,WUHU21623XXSP,2013-03-12 07:25:00,
2013-03-12 03:30:00,37.0,28.9,29.11,West,270,0.0,4.3,72,0.00,,,0.00,WUHU21623XXSP,2013-03-12 07:30:00,
2013-03-12 03:35:00,37.0,28.9,29.11,WSW,247,7.2,7.2,72,0.00,,,0.00,WUHU21623XXSP,2013-03-12 07:35:00,
2013-03-12 03:40:00,37.0,28.9,29.12,West,270,5.6,7.2,72,0.00,,,0.00,WUHU21623XXSP,2013-03-12 07:40:00,
2013-03-12 03:45:00,37.0,29.2,29.11,WSW,247,1.3,5.6,73,0.00,,,0.00,WUHU21623XXSP,2013-03-12 07:45:00,
2013-03-12 03:50:00,37.0,29.2,29.11,West,270,0.0,6.9,73,0.00,,,0.00,WUHU21623XXSP,2013-03-12 07:50:00,
2013-03-12 03:55:00,37.0,29.2,29.11,West,270,4.9,7.2,73,0.00,,,0.00,WUHU21623XXSP,2013-03-12 07:55:00,
2013-03-12 04:00:00,36.9,29.0,29.11,West,270,3.1,7.2,73,0.00,,,0.00,WUHU21623XXSP,2013-03-12 08:00:00,
2013-03-12 04:05:00,36.9,29.0,29.11,West,270,3.1,4.9,73,0.00,,,0.00,WUHU21623XXSP,2013-03-12 08:05:00,
2013-03-12 04:10:00,36.9,29.0,29.11,West,270,3.1,3.1,73,0.00,,,0.00,WUHU21623XXSP,2013-03-12 08:10:00,
2013-03-12 04:15:00,37.0,28.9,29.12,SW,225,9.4,9.4,72,0.00,,,0.00,WUHU21623XXSP,2013-03-12 08:15:00,
2013-03-12 04:20:00,36.9,28.7,29.12,WNW,292,6.3,9.4,72,0.00,,,0.00,WUHU21623XXSP,2013-03-12 08:20:00,
2013-03-12 04:25:00,36.9,28.7,29.12,WSW,247,8.7,8.7,72,0.00,,,0.00,WUHU21623XXSP,2013-03-12 08:25:00,
2013-03-12 04:30:00,36.7,28.5,29.12,WSW,247,6.7,8.7,72,0.00,,,0.00,WUHU21623XXSP,2013-03-12 08:30:00,
2013-03-12 04:35:00,36.5,28.3,29.12,WNW,292,2.9,7.4,72,0.00,,,0.00,WUHU21623XXSP,2013-03-12 08:35:00,
2013-03-12 04:40:00,36.5,28.3,29.12,West,270,1.6,4.9,72,0.00,,,0.00,WUHU21623XXSP,2013-03-12 08:40:00,
2013-03-12 04:45:00,36.5,28.3,29.13,SW,225,4.3,8.5,72,0.00,,,0.00,WUHU21623XXSP,2013-03-12 08:45:00,
2013-03-12 04:50:00,36.3,28.1,29.12,West,270,5.1,8.5,72,0.00,,,0.00,WUHU21623XXSP,2013-03-12 08:50:00,
2013-03-12 04:55:00,36.3,27.8,29.12,West,270,9.4,9.4,71,0.00,,,0.00,WUHU21623XXSP,2013-03-12 08:55:00,
2013-03-12 05:00:00,36.1,27.6,29.13,WSW,247,4.3,9.4,71,0.00,,,0.00,WUHU21623XXSP,2013-03-12 09:00:00,
2013-03-12 05:05:00,36.1,27.6,29.13,WSW,247,4.3,7.6,71,0.00,,,0.00,WUHU21623XXSP,2013-03-12 09:05:00,
2013-03-12 05:10:00,36.1,27.6,29.13,WSW,247,4.3,4.3,71,0.00,,,0.00,WUHU21623XXSP,2013-03-12 09:10:00,
2013-03-12 05:15:00,36.0,27.5,29.13,WSW,247,4.7,6.7,71,0.00,,,0.00,WUHU21623XXSP,2013-03-12 09:15:00,
2013-03-12 05:20:00,36.1,27.6,29.13,West,270,0.9,6.7,71,0.00,,,0.00,WUHU21623XXSP,2013-03-12 09:20:00,
2013-03-12 05:25:00,36.0,27.5,29.13,West,270,3.4,4.7,71,0.00,,,0.00,WUHU21623XXSP,2013-03-12 09:25:00,
2013-03-12 05:30:00,36.1,27.6,29.14,SW,225,0.2,6.0,71,0.00,,,0.00,WUHU21623XXSP,2013-03-12 09:30:00,
2013-03-12 05:35:00,36.0,27.1,29.13,WSW,247,4.3,6.0,70,0.00,,,0.00,WUHU21623XXSP,2013-03-12 09:35:00,
2013-03-12 05:40:00,36.0,27.1,29.13,WSW,247,12.1,12.1,70,0.00,,,0.00,WUHU21623XXSP,2013-03-12 09:40:00,
2013-03-12 05:45:00,36.0,27.1,29.14,West,270,8.7,12.1,70,0.00,,,0.00,WUHU21623XXSP,2013-03-12 09:45:00,
2013-03-12 05:50:00,36.0,27.1,29.14,SW,225,6.9,8.9,70,0.00,,,0.00,WUHU21623XXSP,2013-03-12 09:50:00,
2013-03-12 05:55:00,36.0,27.1,29.14,SW,225,6.5,6.9,70,0.00,,,0.00,WUHU21623XXSP,2013-03-12 09:55:00,
2013-03-12 06:00:00,36.0,27.1,29.14,WSW,247,2.0,6.5,70,0.00,,,0.00,WUHU21623XXSP,2013-03-12 10:00:00,
2013-03-12 06:05:00,36.0,27.1,29.14,WSW,247,2.0,2.0,70,0.00,,,0.00,WUHU21623XXSP,2013-03-12 10:05:00,
2013-03-12 06:10:00,36.0,27.1,29.14,West,270,0.0,0.0,70,0.00,,,0.00,WUHU21623XXSP,2013-03-12 10:10:00,
2013-03-12 06:15:00,36.0,27.1,29.14,WSW,247,3.6,5.4,70,0.00,,,0.00,WUHU21623XXSP,2013-03-12 10:15:00,
2013-03-12 06:20:00,36.0,27.1,29.14,WSW,247,4.3,5.4,70,0.00,,,0.00,WUHU21623XXSP,2013-03-12 10:20:00,
2013-03-12 06:25:00,35.8,26.6,29.15,WSW,247,4.9,4.9,69,0.00,,,0.00,WUHU21623XXSP,2013-03-12 10:25:00,
2013-03-12 06:30:00,35.8,26.6,29.15,WSW,247,1.6,6.0,69,0.00,,,0.00,WUHU21623XXSP,2013-03-12 10:30:00,
2013-03-12 06:35:00,35.8,26.6,29.14,WSW,247,2.2,6.0,69,0.00,,,0.00,WUHU21623XXSP,2013-03-12 10:35:00,
2013-03-12 06:40:00,35.8,26.6,29.15,SW,225,4.3,5.8,69,0.00,,,0.00,WUHU21623XXSP,2013-03-12 10:40:00,
2013-03-12 06:45:00,35.8,26.6,29.15,SW,225,7.8,7.8,69,0.00,,,0.00,WUHU21623XXSP,2013-03-12 10:45:00,
2013-03-12 06:50:00,36.0,26.8,29.15,West,270,4.7,7.8,69,0.00,,,0.00,WUHU21623XXSP,2013-03-12 10:50:00,
2013-03-12 06:55:00,35.8,26.6,29.16,West,270,6.7,7.6,69,0.00,,,0.00,WUHU21623XXSP,2013-03-12 10:55:00,
2013-03-12 07:00:00,35.8,26.2,29.16,WSW,247,8.1,8.1,68,0.00,,,0.00,WUHU21623XXSP,2013-03-12 11:00:00,
2013-03-12 07:05:00,35.8,26.2,29.16,WSW,247,8.1,8.1,68,0.00,,,0.00,WUHU21623XXSP,2013-03-12 11:05:00,
2013-03-12 07:10:00,35.8,26.2,29.16,WSW,247,8.1,8.1,68,0.00,,,0.00,WUHU21623XXSP,2013-03-12 11:10:00,
2013-03-12 07:15:00,35.8,26.2,29.16,WNW,292,1.8,8.1,68,0.00,,,0.00,WUHU21623XXSP,2013-03-12 11:15:00,
2013-03-12 07:20:00,36.0,26.8,29.16,SW,225,5.6,6.3,69,0.00,,,0.00,WUHU21623XXSP,2013-03-12 11:20:00,
2013-03-12 07:25:00,35.8,26.6,29.16,SSW,202,1.3,5.6,69,0.00,,,0.00,WUHU21623XXSP,2013-03-12 11:25:00,
2013-03-12 07:30:00,35.8,26.6,29.16,West,270,0.0,6.7,69,0.00,,,0.00,WUHU21623XXSP,2013-03-12 11:30:00,
2013-03-12 07:35:00,35.8,26.6,29.16,WSW,247,5.4,7.2,69,0.00,,,0.00,WUHU21623XXSP,2013-03-12 11:35:00,
2013-03-12 07:40:00,35.8,26.6,29.16,West,270,2.7,7.8,69,0.00,,,0.00,WUHU21623XXSP,2013-03-12 11:40:00,
2013-03-12 07:45:00,35.8,26.6,29.16,West,270,0.0,7.8,69,0.00,,,0.00,WUHU21623XXSP,2013-03-12 11:45:00,
2013-03-12 07:50:00,35.8,27.0,29.16,WSW,247,4.7,4.7,70,0.00,,,0.00,WUHU21623XXSP,2013-03-12 11:50:00,
2013-03-12 07:55:00,35.8,26.6,29.16,SW,225,5.6,6.9,69,0.00,,,0.00,WUHU21623XXSP,2013-03-12 11:55:00,
2013-03-12 08:00:00,35.6,26.4,29.17,WSW,247,6.0,6.9,69,0.00,,,0.00,WUHU21623XXSP,2013-03-12 12:00:00,
2013-03-12 08:05:00,35.6,26.4,29.17,SW,225,1.8,7.2,69,0.00,,,0.00,WUHU21623XXSP,2013-03-12 12:05:00,
2013-03-12 08:10:00,35.8,26.6,29.17,West,270,2.5,7.2,69,0.00,,,0.00,WUHU21623XXSP,2013-03-12 12:10:00,
2013-03-12 08:15:00,35.6,26.4,29.18,SW,225,8.7,8.7,69,0.00,,,0.00,WUHU21623XXSP,2013-03-12 12:15:00,
2013-03-12 08:20:00,35.4,26.2,29.18,WSW,247,6.5,8.7,69,0.00,,,0.00,WUHU21623XXSP,2013-03-12 12:20:00,
2013-03-12 08:25:00,35.1,26.2,29.18,West,270,0.0,7.8,70,0.00,,,0.00,WUHU21623XXSP,2013-03-12 12:25:00,
2013-03-12 08:30:00,34.7,25.9,29.18,WNW,292,0.0,6.9,70,0.00,,,0.00,WUHU21623XXSP,2013-03-12 12:30:00,
2013-03-12 08:35:00,34.7,26.2,29.18,West,270,0.0,1.6,71,0.00,,,0.00,WUHU21623XXSP,2013-03-12 12:35:00,
2013-03-12 08:40:00,34.7,26.5,29.18,West,270,0.0,3.1,72,0.00,,,0.00,WUHU21623XXSP,2013-03-12 12:40:00,
2013-03-12 08:45:00,34.7,26.5,29.18,West,270,0.0,7.8,72,0.00,,,0.00,WUHU21623XXSP,2013-03-12 12:45:00,
2013-03-12 08:50:00,34.7,26.9,29.19,West,270,2.5,7.8,73,0.00,,,0.00,WUHU21623XXSP,2013-03-12 12:50:00,
2013-03-12 08:55:00,34.7,26.5,29.19,SW,225,3.1,6.5,72,0.00,,,0.00,WUHU21623XXSP,2013-03-12 12:55:00,
2013-03-12 09:00:00,34.7,26.5,29.19,WSW,247,8.1,8.1,72,0.00,,,0.00,WUHU21623XXSP,2013-03-12 13:00:00,
2013-03-12 09:05:00,34.9,26.4,29.19,West,270,5.6,8.7,71,0.00,,,0.00,WUHU21623XXSP,2013-03-12 13:05:00,
2013-03-12 09:10:00,35.1,26.6,29.19,WSW,247,6.5,8.7,71,0.00,,,0.00,WUHU21623XXSP,2013-03-12 13:10:00,
2013-03-12 09:15:00,35.1,26.2,29.19,WSW,247,0.0,6.5,70,0.00,,,0.00,WUHU21623XXSP,2013-03-12 13:15:00,
2013-03-12 09:20:00,35.2,26.4,29.19,West,270,2.5,4.0,70,0.00,,,0.00,WUHU21623XXSP,2013-03-12 13:20:00,
2013-03-12 09:25:00,35.1,25.9,29.19,WSW,247,1.8,8.1,69,0.00,,,0.00,WUHU21623XXSP,2013-03-12 13:25:00,
2013-03-12 09:30:00,35.2,26.1,29.20,WSW,247,5.8,8.1,69,0.00,,,0.00,WUHU21623XXSP,2013-03-12 13:30:00,
2013-03-12 09:35:00,35.2,26.1,29.20,West,270,4.5,6.5,69,0.00,,,0.00,WUHU21623XXSP,2013-03-12 13:35:00,
2013-03-12 09:40:00,35.4,26.2,29.20,West,270,6.7,7.6,69,0.00,,,0.00,WUHU21623XXSP,2013-03-12 13:40:00,
2013-03-12 09:45:00,35.2,25.7,29.20,West,270,6.5,7.6,68,0.00,,,0.00,WUHU21623XXSP,2013-03-12 13:45:00,
2013-03-12 09:50:00,35.2,25.7,29.20,WSW,247,2.9,7.6,68,0.00,,,0.00,WUHU21623XXSP,2013-03-12 13:50:00,
2013-03-12 09:55:00,35.2,25.7,29.21,West,270,6.0,7.8,68,0.00,,,0.00,WUHU21623XXSP,2013-03-12 13:55:00,
2013-03-12 10:01:00,35.2,25.7,29.20,WSW,247,8.5,8.5,68,0.00,,,0.00,WUHU21623XXSP,2013-03-12 14:01:00,
2013-03-12 10:06:00,35.2,25.7,29.21,WSW,247,10.5,10.5,68,0.00,,,0.00,WUHU21623XXSP,2013-03-12 14:06:00,
2013-03-12 10:11:00,35.2,25.7,29.21,WSW,247,0.0,10.5,68,0.00,,,0.00,WUHU21623XXSP,2013-03-12 14:11:00,
2013-03-12 10:16:00,35.2,26.1,29.21,West,270,0.0,6.5,69,0.00,,,0.00,WUHU21623XXSP,2013-03-12 14:16:00,
2013-03-12 10:21:00,35.2,26.1,29.21,West,270,3.6,8.3,69,0.00,,,0.00,WUHU21623XXSP,2013-03-12 14:21:00,
2013-03-12 10:26:00,35.2,26.4,29.21,SW,225,0.0,8.3,70,0.00,,,0.00,WUHU21623XXSP,2013-03-12 14:26:00,
2013-03-12 10:31:00,35.2,26.4,29.21,West,270,0.0,6.3,70,0.00,,,0.00,WUHU21623XXSP,2013-03-12 14:31:00,
2013-03-12 10:36:00,35.4,26.6,29.21,WSW,247,6.9,6.9,70,0.00,,,0.00,WUHU21623XXSP,2013-03-12 14:36:00,
2013-03-12 10:41:00,35.6,26.8,29.21,WSW,247,6.9,8.1,70,0.00,,,0.00,WUHU21623XXSP,2013-03-12 14:41:00,
2013-03-12 10:46:00,35.8,27.0,29.21,WSW,247,0.0,8.1,70,0.00,,,0.00,WUHU21623XXSP,2013-03-12 14:46:00,
2013-03-12 10:51:00,35.8,27.3,29.21,WSW,247,4.7,6.0,71,0.00,,,0.00,WUHU21623XXSP,2013-03-12 14:51:00,
2013-03-12 10:56:00,36.0,27.5,29.21,West,270,5.8,6.0,71,0.00,,,0.00,WUHU21623XXSP,2013-03-12 14:56:00,
2013-03-12 11:01:00,36.1,27.6,29.22,WSW,247,5.4,5.8,71,0.00,,,0.00,WUHU21623XXSP,2013-03-12 15:01:00,
2013-03-12 11:07:00,36.3,27.5,29.21,SW,225,5.1,5.6,70,0.00,,,0.00,WUHU21623XXSP,2013-03-12 15:07:00,
2013-03-12 11:12:00,36.3,27.5,29.22,SW,225,0.9,7.2,70,0.00,,,0.00,WUHU21623XXSP,2013-03-12 15:12:00,
2013-03-12 11:17:00,36.3,27.5,29.21,SW,225,5.1,7.2,70,0.00,,,0.00,WUHU21623XXSP,2013-03-12 15:17:00,
2013-03-12 11:22:00,36.3,27.5,29.21,WSW,247,6.5,6.5,70,0.00,,,0.00,WUHU21623XXSP,2013-03-12 15:22:00,
2013-03-12 11:27:00,36.0,27.1,29.22,WSW,247,6.3,6.5,70,0.00,,,0.00,WUHU21623XXSP,2013-03-12 15:27:00,
2013-03-12 11:32:00,35.8,27.0,29.22,West,270,6.5,6.9,70,0.00,,,0.00,WUHU21623XXSP,2013-03-12 15:32:00,
2013-03-12 11:37:00,35.2,26.7,29.21,WSW,247,2.5,6.9,71,0.00,,,0.00,WUHU21623XXSP,2013-03-12 15:37:00,
2013-03-12 11:42:00,35.1,26.6,29.21,West,270,0.0,6.7,71,0.00,,,0.00,WUHU21623XXSP,2013-03-12 15:42:00,
2013-03-12 11:47:00,35.2,27.1,29.21,West,270,0.0,2.2,72,0.00,,,0.00,WUHU21623XXSP,2013-03-12 15:47:00,
2013-03-12 11:52:00,35.6,28.1,29.22,WSW,247,3.8,5.1,74,0.00,,,0.00,WUHU21623XXSP,2013-03-12 15:52:00,
2013-03-12 11:57:00,35.8,28.3,29.22,SW,225,5.4,5.4,74,0.00,,,0.00,WUHU21623XXSP,2013-03-12 15:57:00,
2013-03-12 12:02:00,35.8,28.3,29.22,WSW,247,5.8,5.8,74,0.00,,,0.00,WUHU21623XXSP,2013-03-12 16:02:00,
2013-03-12 12:07:00,35.1,27.5,29.22,WSW,247,2.9,5.8,74,0.00,,,0.00,WUHU21623XXSP,2013-03-12 16:07:00,
2013-03-12 12:12:00,34.9,27.4,29.22,WSW,247,12.1,12.1,74,0.00,,,0.00,WUHU21623XXSP,2013-03-12 16:12:00,
2013-03-12 12:17:00,34.7,27.5,29.22,West,270,4.3,12.1,75,0.00,,,0.00,WUHU21623XXSP,2013-03-12 16:17:00,
2013-03-12 12:22:00,34.9,28.0,29.22,WNW,292,0.0,4.3,76,0.00,,,0.00,WUHU21623XXSP,2013-03-12 16:22:00,
2013-03-12 12:27:00,35.1,28.2,29.22,SW,225,5.4,5.4,76,0.00,,,0.00,WUHU21623XXSP,2013-03-12 16:27:00,
2013-03-12 12:32:00,35.2,28.7,29.22,West,270,5.6,5.6,77,0.00,,,0.00,WUHU21623XXSP,2013-03-12 16:32:00,
2013-03-12 12:37:00,35.2,28.7,29.22,West,270,0.9,5.6,77,0.00,,,0.00,WUHU21623XXSP,2013-03-12 16:37:00,
2013-03-12 12:42:00,35.1,28.5,29.23,West,270,2.5,2.7,77,0.00,,,0.00,WUHU21623XXSP,2013-03-12 16:42:00,
2013-03-12 12:47:00,34.7,27.8,29.23,West,270,0.0,5.6,76,0.00,,,0.00,WUHU21623XXSP,2013-03-12 16:47:00,
2013-03-12 12:52:00,34.5,27.6,29.22,SW,225,6.5,6.5,76,0.00,,,0.00,WUHU21623XXSP,2013-03-12 16:52:00,
2013-03-12 12:57:00,34.5,27.6,29.22,West,270,0.0,6.5,76,0.00,,,0.00,WUHU21623XXSP,2013-03-12 16:57:00,
2013-03-12 13:02:00,34.3,27.5,29.23,WNW,292,0.0,1.6,76,0.00,,,0.00,WUHU21623XXSP,2013-03-12 17:02:00,
2013-03-12 13:07:00,34.3,27.5,29.23,WNW,292,0.0,1.6,76,0.00,,,0.00,WUHU21623XXSP,2013-03-12 17:07:00,
2013-03-12 13:12:00,34.3,27.5,29.23,WSW,247,0.0,0.0,76,0.00,,,0.00,WUHU21623XXSP,2013-03-12 17:12:00,
2013-03-12 13:17:00,34.3,27.5,29.23,WSW,247,0.0,0.0,76,0.00,,,0.00,WUHU21623XXSP,2013-03-12 17:17:00,
2013-03-12 13:23:00,34.3,27.5,29.23,WSW,247,0.0,0.0,76,0.00,,,0.00,WUHU21623XXSP,2013-03-12 17:23:00,
2013-03-12 13:28:00,34.3,27.5,29.22,WSW,247,0.0,0.0,76,0.00,,,0.00,WUHU21623XXSP,2013-03-12 17:28:00,
2013-03-12 13:38:00,36.5,30.9,29.23,West,270,0.0,0.0,80,0.00,,,0.00,WUHU21623XXSP,2013-03-12 17:38:00,
2013-03-12 13:43:00,37.0,31.5,29.23,SW,225,2.7,5.4,80,0.00,,,0.00,WUHU21623XXSP,2013-03-12 17:43:00,
2013-03-12 13:48:00,37.6,31.6,29.23,West,270,5.8,5.8,80,0.00,,,0.00,WUHU21623XXSP,2013-03-12 17:48:00,
2013-03-12 13:53:00,38.1,31.9,29.23,West,270,5.8,5.8,78,0.00,,,0.00,WUHU21623XXSP,2013-03-12 17:53:00,
2013-03-12 13:58:00,38.7,32.1,29.23,WSW,247,6.0,6.0,77,0.00,,,0.00,WUHU21623XXSP,2013-03-12 17:58:00,
2013-03-12 14:03:00,39.0,31.7,29.22,West,270,3.8,7.6,75,0.00,,,0.00,WUHU21623XXSP,2013-03-12 18:03:00,
2013-03-12 14:08:00,39.0,30.7,29.23,West,270,5.1,7.6,72,0.00,,,0.00,WUHU21623XXSP,2013-03-12 18:08:00,
2013-03-12 14:13:00,38.8,29.9,29.22,West,270,4.3,8.7,70,0.00,,,0.00,WUHU21623XXSP,2013-03-12 18:13:00,
2013-03-12 14:18:00,38.3,28.6,29.23,WNW,292,3.4,8.7,68,0.00,,,0.00,WUHU21623XXSP,2013-03-12 18:18:00,
2013-03-12 14:23:00,37.9,27.6,29.22,SW,225,7.2,7.4,66,0.00,,,0.00,WUHU21623XXSP,2013-03-12 18:23:00,
2013-03-12 14:28:00,37.8,27.0,29.22,SW,225,8.1,8.1,65,0.00,,,0.00,WUHU21623XXSP,2013-03-12 18:28:00,
2013-03-12 14:33:00,37.8,27.0,29.22,West,270,6.0,9.6,65,0.00,,,0.00,WUHU21623XXSP,2013-03-12 18:33:00,
2013-03-12 14:38:00,37.8,26.6,29.22,West,270,9.2,9.6,64,0.00,,,0.00,WUHU21623XXSP,2013-03-12 18:38:00,
2013-03-12 14:43:00,37.9,27.2,29.22,WSW,247,4.9,9.2,65,0.00,,,0.00,WUHU21623XXSP,2013-03-12 18:43:00,
2013-03-12 14:48:00,38.1,27.0,29.22,West,270,6.7,9.2,64,0.00,,,0.00,WUHU21623XXSP,2013-03-12 18:48:00,
2013-03-12 14:53:00,38.1,27.0,29.22,SW,225,10.3,10.3,64,0.00,,,0.00,WUHU21623XXSP,2013-03-12 18:53:00,
2013-03-12 14:58:00,37.9,26.4,29.22,West,270,5.6,10.3,63,0.00,,,0.00,WUHU21623XXSP,2013-03-12 18:58:00,
2013-03-12 15:03:00,37.9,26.4,29.22,WSW,247,4.5,6.7,63,0.00,,,0.00,WUHU21623XXSP,2013-03-12 19:03:00,
2013-03-12 15:08:00,37.8,25.9,29.22,SW,225,7.8,7.8,62,0.00,,,0.00,WUHU21623XXSP,2013-03-12 19:08:00,
2013-03-12 15:13:00,37.4,25.6,29.22,WSW,247,5.6,7.8,62,0.00,,,0.00,WUHU21623XXSP,2013-03-12 19:13:00,
2013-03-12 15:18:00,36.9,25.1,29.22,WSW,247,7.8,10.3,62,0.00,,,0.00,WUHU21623XXSP,2013-03-12 19:18:00,
2013-03-12 15:23:00,36.5,24.7,29.21,SW,225,8.5,10.3,62,0.00,,,0.00,WUHU21623XXSP,2013-03-12 19:23:00,
2013-03-12 15:28:00,36.5,25.1,29.21,WSW,247,4.7,10.5,63,0.00,,,0.00,WUHU21623XXSP,2013-03-12 19:28:00,
2013-03-12 15:33:00,36.3,24.9,29.21,SW,225,6.9,10.5,63,0.00,,,0.00,WUHU21623XXSP,2013-03-12 19:33:00,
2013-03-12 15:38:00,36.5,25.1,29.21,West,270,6.3,9.6,63,0.00,,,0.00,WUHU21623XXSP,2013-03-12 19:38:00,
2013-03-12 15:43:00,36.5,25.1,29.22,SW,225,3.1,6.3,63,0.00,,,0.00,WUHU21623XXSP,2013-03-12 19:43:00,
2013-03-12 15:48:00,36.5,25.1,29.21,WSW,247,6.0,6.0,63,0.00,,,0.00,WUHU21623XXSP,2013-03-12 19:48:00,
2013-03-12 15:53:00,36.5,25.1,29.22,SW,225,4.9,6.5,63,0.00,,,0.00,WUHU21623XXSP,2013-03-12 19:53:00,
2013-03-12 15:58:00,36.3,24.9,29.22,SW,225,6.3,9.2,63,0.00,,,0.00,WUHU21623XXSP,2013-03-12 19:58:00,
2013-03-12 16:03:00,36.0,24.6,29.22,West,270,6.0,9.2,63,0.00,,,0.00,WUHU21623XXSP,2013-03-12 20:03:00,
2013-03-12 16:08:00,36.1,24.7,29.22,WSW,247,5.6,7.2,63,0.00,,,0.00,WUHU21623XXSP,2013-03-12 20:08:00,
2013-03-12 16:13:00,36.1,24.7,29.22,West,270,6.5,6.5,63,0.00,,,0.00,WUHU21623XXSP,2013-03-12 20:13:00,
2013-03-12 16:18:00,36.1,24.7,29.22,SSW,202,7.8,7.8,63,0.00,,,0.00,WUHU21623XXSP,2013-03-12 20:18:00,
2013-03-12 16:23:00,36.3,24.9,29.22,West,270,3.1,9.2,63,0.00,,,0.00,WUHU21623XXSP,2013-03-12 20:23:00,
2013-03-12 16:28:00,36.5,25.1,29.23,West,270,6.7,9.2,63,0.00,,,0.00,WUHU21623XXSP,2013-03-12 20:28:00,
2013-03-12 16:33:00,37.0,25.2,29.23,WNW,292,5.8,10.3,62,0.00,,,0.00,WUHU21623XXSP,2013-03-12 20:33:00,
2013-03-12 16:38:00,37.0,25.2,29.23,West,270,6.5,10.3,62,0.00,,,0.00,WUHU21623XXSP,2013-03-12 20:38:00,
2013-03-12 16:43:00,37.0,24.8,29.23,WSW,247,1.8,7.6,61,0.00,,,0.00,WUHU21623XXSP,2013-03-12 20:43:00,
2013-03-12 16:48:00,36.9,24.3,29.23,West,270,7.4,7.6,60,0.00,,,0.00,WUHU21623XXSP,2013-03-12 20:48:00,
2013-03-12 16:53:00,36.5,23.6,29.23,West,270,5.6,9.6,59,0.00,,,0.00,WUHU21623XXSP,2013-03-12 20:53:00,
2013-03-12 16:58:00,36.3,23.4,29.23,West,270,10.5,10.5,59,0.00,,,0.00,WUHU21623XXSP,2013-03-12 20:58:00,
2013-03-12 17:03:00,36.1,23.2,29.23,West,270,0.0,10.5,59,0.00,,,0.00,WUHU21623XXSP,2013-03-12 21:03:00,
2013-03-12 17:08:00,36.0,23.1,29.23,WSW,247,6.9,7.8,59,0.00,,,0.00,WUHU21623XXSP,2013-03-12 21:08:00,
2013-03-12 17:13:00,36.0,23.5,29.23,SW,225,4.0,6.9,60,0.00,,,0.00,WUHU21623XXSP,2013-03-12 21:13:00,
2013-03-12 17:18:00,35.8,23.3,29.24,WSW,247,10.1,10.1,60,0.00,,,0.00,WUHU21623XXSP,2013-03-12 21:18:00,
2013-03-12 17:23:00,35.8,23.3,29.23,WSW,247,5.6,10.1,60,0.00,,,0.00,WUHU21623XXSP,2013-03-12 21:23:00,
2013-03-12 17:28:00,35.8,23.3,29.24,West,270,6.9,6.9,60,0.00,,,0.00,WUHU21623XXSP,2013-03-12 21:28:00,
2013-03-12 17:34:00,35.8,22.9,29.24,West,270,6.3,8.1,59,0.00,,,0.00,WUHU21623XXSP,2013-03-12 21:34:00,
2013-03-12 17:39:00,35.6,22.7,29.24,West,270,3.6,8.1,59,0.00,,,0.00,WUHU21623XXSP,2013-03-12 21:39:00,
2013-03-12 17:44:00,35.4,22.6,29.25,WSW,247,4.0,7.4,59,0.00,,,0.00,WUHU21623XXSP,2013-03-12 21:44:00,
2013-03-12 17:49:00,35.2,22.4,29.25,West,270,6.0,6.0,59,0.00,,,0.00,WUHU21623XXSP,2013-03-12 21:49:00,
2013-03-12 17:54:00,35.2,22.4,29.25,West,270,5.1,6.0,59,0.00,,,0.00,WUHU21623XXSP,2013-03-12 21:54:00,
2013-03-12 17:59:00,35.2,22.0,29.25,West,270,5.8,7.2,58,0.00,,,0.00,WUHU21623XXSP,2013-03-12 21:59:00,
2013-03-12 18:04:00,35.2,22.0,29.24,West,270,6.3,7.2,58,0.00,,,0.00,WUHU21623XXSP,2013-03-12 22:04:00,
2013-03-12 18:09:00,35.4,22.1,29.25,West,270,5.6,6.3,58,0.00,,,0.00,WUHU21623XXSP,2013-03-12 22:09:00,
2013-03-12 18:14:00,35.2,22.0,29.25,West,270,4.0,5.8,58,0.00,,,0.00,WUHU21623XXSP,2013-03-12 22:14:00,
2013-03-12 18:19:00,35.2,22.0,29.25,SSW,202,2.5,5.8,58,0.00,,,0.00,WUHU21623XXSP,2013-03-12 22:19:00,
2013-03-12 18:24:00,35.2,22.0,29.25,SW,225,5.4,6.5,58,0.00,,,0.00,WUHU21623XXSP,2013-03-12 22:24:00,
2013-03-12 18:29:00,35.2,22.0,29.25,West,270,4.3,6.5,58,0.00,,,0.00,WUHU21623XXSP,2013-03-12 22:29:00,
2013-03-12 18:34:00,34.9,21.6,29.25,West,270,7.2,7.6,58,0.00,,,0.00,WUHU21623XXSP,2013-03-12 22:34:00,
2013-03-12 18:39:00,34.7,21.4,29.25,WSW,247,6.0,7.8,58,0.00,,,0.00,WUHU21623XXSP,2013-03-12 22:39:00,
2013-03-12 18:44:00,34.7,21.4,29.26,West,270,4.0,7.8,58,0.00,,,0.00,WUHU21623XXSP,2013-03-12 22:44:00,
2013-03-12 18:49:00,34.7,21.4,29.26,SW,225,6.9,6.9,58,0.00,,,0.00,WUHU21623XXSP,2013-03-12 22:49:00,
2013-03-12 18:54:00,34.7,21.4,29.26,West,270,2.7,6.9,58,0.00,,,0.00,WUHU21623XXSP,2013-03-12 22:54:00,
2013-03-12 18:59:00,34.7,21.4,29.26,West,270,3.8,6.9,58,0.00,,,0.00,WUHU21623XXSP,2013-03-12 22:59:00,
2013-03-12 19:04:00,34.5,21.2,29.27,West,270,0.0,5.1,58,0.00,,,0.00,WUHU21623XXSP,2013-03-12 23:04:00,
2013-03-12 19:09:00,34.5,21.2,29.27,SW,225,4.7,5.1,58,0.00,,,0.00,WUHU21623XXSP,2013-03-12 23:09:00,
2013-03-12 19:14:00,34.3,21.5,29.27,SW,225,5.6,5.6,59,0.00,,,0.00,WUHU21623XXSP,2013-03-12 23:14:00,
2013-03-12 19:19:00,34.2,21.5,29.27,West,270,5.1,5.6,59,0.00,,,0.00,WUHU21623XXSP,2013-03-12 23:19:00,
2013-03-12 19:24:00,34.2,21.7,29.27,SW,225,0.9,6.7,60,0.00,,,0.00,WUHU21623XXSP,2013-03-12 23:24:00,
2013-03-12 19:29:00,34.0,21.6,29.27,West,270,0.0,6.7,60,0.00,,,0.00,WUHU21623XXSP,2013-03-12 23:29:00,
2013-03-12 19:34:00,34.0,21.6,29.27,SW,225,5.1,6.9,60,0.00,,,0.00,WUHU21623XXSP,2013-03-12 23:34:00,
2013-03-12 19:39:00,34.0,21.6,29.27,SW,225,1.8,6.9,60,0.00,,,0.00,WUHU21623XXSP,2013-03-12 23:39:00,
2013-03-12 19:44:00,34.0,21.6,29.27,WSW,247,0.0,5.6,60,0.00,,,0.00,WUHU21623XXSP,2013-03-12 23:44:00,
2013-03-12 19:49:00,33.8,21.7,29.28,WSW,247,0.0,0.0,61,0.00,,,0.00,WUHU21623XXSP,2013-03-12 23:49:00,
2013-03-12 19:54:00,33.8,21.7,29.28,WSW,247,5.6,5.6,61,0.00,,,0.00,WUHU21623XXSP,2013-03-12 23:54:00,
2013-03-12 19:59:00,33.8,21.7,29.28,West,270,1.3,5.6,61,0.00,,,0.00,WUHU21623XXSP,2013-03-12 23:59:00,
2013-03-12 20:04:00,33.4,21.4,29.28,West,270,4.9,4.9,61,0.00,,,0.00,WUHU21623XXSP,2013-03-13 00:04:00,
2013-03-12 20:09:00,33.3,21.6,29.28,West,270,0.9,6.9,62,0.00,,,0.00,WUHU21623XXSP,2013-03-13 00:09:00,
2013-03-12 20:14:00,33.4,21.8,29.28,West,270,4.5,6.9,62,0.00,,,0.00,WUHU21623XXSP,2013-03-13 00:14:00,
2013-03-12 20:19:00,33.3,22.0,29.28,WSW,247,1.6,7.2,63,0.00,,,0.00,WUHU21623XXSP,2013-03-13 00:19:00,
2013-03-12 20:24:00,33.1,21.8,29.28,West,270,2.7,7.2,63,0.00,,,0.00,WUHU21623XXSP,2013-03-13 00:24:00,
2013-03-12 20:29:00,33.1,22.2,29.28,SW,225,3.8,3.8,64,0.00,,,0.00,WUHU21623XXSP,2013-03-13 00:29:00,
2013-03-12 20:34:00,32.9,22.0,29.28,WSW,247,0.0,3.8,64,0.00,,,0.00,WUHU21623XXSP,2013-03-13 00:34:00,
2013-03-12 20:39:00,32.9,22.4,29.28,SW,225,2.2,6.3,65,0.00,,,0.00,WUHU21623XXSP,2013-03-13 00:39:00,
2013-03-12 20:44:00,33.1,22.5,29.28,WSW,247,5.1,6.3,65,0.00,,,0.00,WUHU21623XXSP,2013-03-13 00:44:00,
2013-03-12 20:49:00,32.9,22.4,29.28,SW,225,0.0,5.4,65,0.00,,,0.00,WUHU21623XXSP,2013-03-13 00:49:00,
2013-03-12 20:54:00,33.1,22.9,29.28,WSW,247,6.9,6.9,66,0.00,,,0.00,WUHU21623XXSP,2013-03-13 00:54:00,
2013-03-12 20:59:00,32.9,22.7,29.28,West,270,1.1,6.9,66,0.00,,,0.00,WUHU21623XXSP,2013-03-13 00:59:00,
2013-03-12 21:04:00,32.7,22.9,29.28,SW,225,6.0,6.0,67,0.00,,,0.00,WUHU21623XXSP,2013-03-13 01:04:00,
2013-03-12 21:09:00,32.7,22.9,29.28,West,270,0.0,6.0,67,0.00,,,0.00,WUHU21623XXSP,2013-03-13 01:09:00,
2013-03-12 21:14:00,32.7,23.3,29.28,SW,225,0.0,2.9,68,0.00,,,0.00,WUHU21623XXSP,2013-03-13 01:14:00,
2013-03-12 21:19:00,32.5,23.1,29.28,WSW,247,0.0,2.9,68,0.00,,,0.00,WUHU21623XXSP,2013-03-13 01:19:00,
2013-03-12 21:24:00,32.5,23.5,29.28,WSW,247,0.0,2.0,69,0.00,,,0.00,WUHU21623XXSP,2013-03-13 01:24:00,
2013-03-12 21:29:00,32.5,23.5,29.28,SW,225,0.0,2.0,69,0.00,,,0.00,WUHU21623XXSP,2013-03-13 01:29:00,
2013-03-12 21:34:00,32.4,23.7,29.28,WNW,292,0.0,6.0,70,0.00,,,0.00,WUHU21623XXSP,2013-03-13 01:34:00,
2013-03-12 21:39:00,32.4,23.7,29.28,WSW,247,2.2,6.0,70,0.00,,,0.00,WUHU21623XXSP,2013-03-13 01:39:00,
2013-03-12 21:44:00,32.2,23.5,29.28,SW,225,0.0,2.2,70,0.00,,,0.00,WUHU21623XXSP,2013-03-13 01:44:00,
2013-03-12 21:49:00,32.0,23.7,29.28,WSW,247,3.4,3.4,71,0.00,,,0.00,WUHU21623XXSP,2013-03-13 01:49:00,
2013-03-12 21:54:00,31.8,23.5,29.28,West,270,0.0,3.4,71,0.00,,,0.00,WUHU21623XXSP,2013-03-13 01:54:00,
2013-03-12 21:59:00,31.6,23.3,29.29,WNW,292,2.0,2.0,71,0.00,,,0.00,WUHU21623XXSP,2013-03-13 01:59:00,
2013-03-12 22:04:00,31.5,23.1,29.29,WSW,247,0.0,4.0,71,0.00,,,0.00,WUHU21623XXSP,2013-03-13 02:04:00,
2013-03-12 22:09:00,31.3,23.0,29.29,WSW,247,2.7,2.7,71,0.00,,,0.00,WUHU21623XXSP,2013-03-13 02:09:00,
2013-03-12 22:14:00,30.9,22.6,29.29,WSW,247,0.0,2.7,71,0.00,,,0.00,WUHU21623XXSP,2013-03-13 02:14:00,
2013-03-12 22:19:00,30.9,22.6,29.29,WSW,247,0.0,4.9,71,0.00,,,0.00,WUHU21623XXSP,2013-03-13 02:19:00,
2013-03-12 22:24:00,30.7,22.4,29.29,WSW,247,0.0,4.9,71,0.00,,,0.00,WUHU21623XXSP,2013-03-13 02:24:00,
2013-03-12 22:29:00,30.7,22.4,29.29,WSW,247,0.0,5.8,71,0.00,,,0.00,WUHU21623XXSP,2013-03-13 02:29:00,
2013-03-12 22:34:00,30.6,22.2,29.29,WSW,247,0.0,5.8,71,0.00,,,0.00,WUHU21623XXSP,2013-03-13 02:34:00,
2013-03-12 22:39:00,30.6,22.2,29.29,SW,225,7.2,7.2,71,0.00,,,0.00,WUHU21623XXSP,2013-03-13 02:39:00,
2013-03-12 22:44:00,30.6,22.2,29.29,SW,225,1.8,7.2,71,0.00,,,0.00,WUHU21623XXSP,2013-03-13 02:44:00,
2013-03-12 22:49:00,30.4,22.1,29.29,SW,225,4.3,7.2,71,0.00,,,0.00,WUHU21623XXSP,2013-03-13 02:49:00,
2013-03-12 22:54:00,30.4,22.1,29.29,WSW,247,1.3,7.2,71,0.00,,,0.00,WUHU21623XXSP,2013-03-13 02:54:00,
2013-03-12 22:59:00,30.2,21.9,29.29,WSW,247,2.9,5.8,71,0.00,,,0.00,WUHU21623XXSP,2013-03-13 02:59:00,
2013-03-12 23:04:00,30.4,22.1,29.29,SW,225,5.1,7.8,71,0.00,,,0.00,WUHU21623XXSP,2013-03-13 03:04:00,
2013-03-12 23:09:00,30.4,21.7,29.28,WSW,247,4.0,7.8,70,0.00,,,0.00,WUHU21623XXSP,2013-03-13 03:09:00,
2013-03-12 23:14:00,30.0,21.4,29.29,WSW,247,1.1,4.0,70,0.00,,,0.00,WUHU21623XXSP,2013-03-13 03:14:00,
2013-03-12 23:19:00,29.8,21.2,29.28,SW,225,0.0,4.3,70,0.00,,,0.00,WUHU21623XXSP,2013-03-13 03:19:00,
2013-03-12 23:24:00,30.0,21.4,29.28,WSW,247,0.0,4.3,70,0.00,,,0.00,WUHU21623XXSP,2013-03-13 03:24:00,
2013-03-12 23:29:00,30.0,21.4,29.28,SW,225,2.5,2.5,70,0.00,,,0.00,WUHU21623XXSP,2013-03-13 03:29:00,
2013-03-12 23:34:00,30.0,21.4,29.28,SW,225,2.9,5.6,70,0.00,,,0.00,WUHU21623XXSP,2013-03-13 03:34:00,
2013-03-12 23:39:00,30.4,21.7,29.28,SSW,202,3.8,5.6,70,0.00,,,0.00,WUHU21623XXSP,2013-03-13 03:39:00,
2013-03-12 23:44:00,30.4,21.7,29.28,WSW,247,0.0,4.3,70,0.00,,,0.00,WUHU21623XXSP,2013-03-13 03:44:00,
2013-03-12 23:49:00,30.4,21.7,29.28,WSW,247,0.0,4.3,70,0.00,,,0.00,WUHU21623XXSP,2013-03-13 03:49:00,
2013-03-12 23:54:00,30.6,21.6,29.28,SW,225,0.0,0.7,69,0.00,,,0.00,WUHU21623XXSP,2013-03-13 03:54:00,
2013-03-12 23:59:00,30.7,21.7,29.29,SW,225,5.1,5.1,69,0.00,,,0.00,WUHU21623XXSP,2013-03-13 03:59:00,